Meteo pe oră la Bolshie Letcy

Astăzi, 8 Mai, Sâmbătă

Timp Temperatura Precipitaţii Vânt Presiune Umiditate
00:00 +5°C° 0.3 mm 4 m/s 739 mmHg 95%
01:00 +5°C° 0.3 mm 3 m/s 739 mmHg 95%
02:00 +4°C° 0 mm 3 m/s 739 mmHg 96%
03:00 +4°C° 0 mm 3 m/s 739 mmHg 95%
04:00 +3°C° 0 mm 3 m/s 740 mmHg 95%
05:00 +3°C° 0 mm 3 m/s 740 mmHg 94%
06:00 +3°C° 0 mm 4 m/s 740 mmHg 91%
07:00 +4°C° 0 mm 4 m/s 741 mmHg 88%
08:00 +4°C° 0 mm 4 m/s 741 mmHg 85%
09:00 +5°C° 0 mm 4 m/s 741 mmHg 76%
10:00 +6°C° 0 mm 5 m/s 741 mmHg 67%
11:00 +7°C° 0 mm 5 m/s 741 mmHg 58%
12:00 +7°C° 0 mm 5 m/s 742 mmHg 58%
13:00 +7°C° 0 mm 6 m/s 742 mmHg 58%
14:00 +7°C° 0 mm 6 m/s 742 mmHg 57%
15:00 +7°C° 0 mm 6 m/s 742 mmHg 59%
16:00 +7°C° 0 mm 5 m/s 743 mmHg 60%
17:00 +6°C° 0 mm 5 m/s 743 mmHg 61%
18:00 +5°C° 0 mm 4 m/s 743 mmHg 63%
19:00 +4°C° 0 mm 4 m/s 744 mmHg 65%
20:00 +3°C° 0 mm 3 m/s 744 mmHg 67%
21:00 +2°C° 0 mm 3 m/s 744 mmHg 72%
22:00 +1°C° 0 mm 3 m/s 745 mmHg 78%
23:00 0°C° 0 mm 3 m/s 745 mmHg 83%

Mâine, 9 Mai, Duminică

Timp Temperatura Precipitaţii Vânt Presiune Umiditate
00:00 0°C° 0 mm 3 m/s 746 mmHg 82%
01:00 0°C° 0 mm 3 m/s 746 mmHg 82%
02:00 -1°C° 0 mm 4 m/s 747 mmHg 81%
03:00 -2°C° 0 mm 4 m/s 748 mmHg 82%
04:00 -1°C° 0 mm 3 m/s 748 mmHg 82%
05:00 -1°C° 0 mm 3 m/s 749 mmHg 83%
06:00 +1°C° 0 mm 3 m/s 749 mmHg 75%
07:00 +3°C° 0 mm 4 m/s 750 mmHg 67%
08:00 +5°C° 0 mm 4 m/s 750 mmHg 59%
09:00 +6°C° 0 mm 4 m/s 751 mmHg 54%
10:00 +8°C° 0 mm 4 m/s 751 mmHg 49%
11:00 +10°C° 0 mm 4 m/s 751 mmHg 44%
12:00 +10°C° 0 mm 4 m/s 751 mmHg 43%
13:00 +11°C° 0 mm 4 m/s 752 mmHg 41%
14:00 +12°C° 0 mm 3 m/s 752 mmHg 39%
15:00 +12°C° 0 mm 3 m/s 752 mmHg 41%
16:00 +12°C° 0 mm 2 m/s 752 mmHg 42%
17:00 +12°C° 0 mm 2 m/s 752 mmHg 44%
18:00 +10°C° 0 mm 2 m/s 753 mmHg 50%
19:00 +8°C° 0 mm 2 m/s 753 mmHg 56%
20:00 +6°C° 0 mm 2 m/s 753 mmHg 62%
21:00 +6°C° 0 mm 2 m/s 754 mmHg 63%
22:00 +4°C° 0 mm 3 m/s 754 mmHg 65%
23:00 +3°C° 0 mm 3 m/s 754 mmHg 67%

Poimâine, 10 Mai, Luni

Timp Temperatura Precipitaţii Vânt Presiune Umiditate
00:00 +3°C° 0 mm 3 m/s 754 mmHg 69%
01:00 +3°C° 0 mm 3 m/s 755 mmHg 70%
02:00 +3°C° 0 mm 3 m/s 755 mmHg 71%
03:00 +3°C° 0 mm 3 m/s 755 mmHg 71%
04:00 +4°C° 0 mm 3 m/s 755 mmHg 70%
05:00 +4°C° 0 mm 3 m/s 755 mmHg 70%
06:00 +5°C° 0 mm 4 m/s 755 mmHg 69%
07:00 +7°C° 0 mm 4 m/s 756 mmHg 67%
08:00 +8°C° 0 mm 4 m/s 756 mmHg 66%
09:00 +11°C° 0 mm 4 m/s 756 mmHg 62%
10:00 +13°C° 0 mm 5 m/s 756 mmHg 58%
11:00 +14°C° 0 mm 5 m/s 756 mmHg 53%
12:00 +15°C° 0 mm 5 m/s 756 mmHg 53%
13:00 +17°C° 0 mm 4 m/s 756 mmHg 52%
14:00 +18°C° 0 mm 4 m/s 756 mmHg 52%
15:00 +17°C° 0 mm 4 m/s 756 mmHg 55%
16:00 +17°C° 0 mm 4 m/s 755 mmHg 58%
17:00 +17°C° 0 mm 3 m/s 755 mmHg 61%
18:00 +14°C° 0 mm 3 m/s 756 mmHg 67%
19:00 +12°C° 0 mm 3 m/s 756 mmHg 74%
20:00 +10°C° 0 mm 3 m/s 756 mmHg 81%
21:00 +9°C° 0 mm 3 m/s 756 mmHg 81%
22:00 +9°C° 0 mm 3 m/s 756 mmHg 82%
23:00 +8°C° 0 mm 3 m/s 756 mmHg 82%

11 Mai, Marţi

Timp Temperatura Precipitaţii Vânt Presiune Umiditate
00:00 +7°C° 0 mm 3 m/s 756 mmHg 82%
01:00 +7°C° 0 mm 3 m/s 757 mmHg 83%
02:00 +7°C° 0 mm 3 m/s 757 mmHg 83%
03:00 +5°C° 0 mm 3 m/s 757 mmHg 82%
04:00 +5°C° 0 mm 3 m/s 757 mmHg 81%
05:00 +5°C° 0 mm 3 m/s 757 mmHg 80%
06:00 +8°C° 0 mm 3 m/s 757 mmHg 73%
07:00 +10°C° 0 mm 3 m/s 757 mmHg 66%
08:00 +12°C° 0 mm 4 m/s 757 mmHg 60%
09:00 +14°C° 0 mm 4 m/s 757 mmHg 56%
10:00 +15°C° 0 mm 4 m/s 757 mmHg 52%
11:00 +17°C° 0 mm 4 m/s 756 mmHg 48%
12:00 +18°C° 0 mm 4 m/s 756 mmHg 48%
13:00 +19°C° 0 mm 4 m/s 756 mmHg 47%
14:00 +19°C° 0 mm 4 m/s 755 mmHg 47%
15:00 +19°C° 0 mm 4 m/s 755 mmHg 50%
16:00 +19°C° 0 mm 4 m/s 755 mmHg 53%
17:00 +18°C° 0 mm 4 m/s 755 mmHg 56%
18:00 +16°C° 0 mm 3 m/s 754 mmHg 63%
19:00 +13°C° 0 mm 3 m/s 754 mmHg 69%
20:00 +11°C° 0 mm 3 m/s 754 mmHg 75%
21:00 +10°C° 0 mm 3 m/s 754 mmHg 77%
22:00 +10°C° 0 mm 3 m/s 754 mmHg 80%
23:00 +9°C° 0 mm 3 m/s 754 mmHg 82%

12 Mai, Miercuri

Timp Temperatura Precipitaţii Vânt Presiune Umiditate
00:00 +9°C° 0 mm 3 m/s 754 mmHg 85%
01:00 +9°C° 0 mm 2 m/s 754 mmHg 88%
02:00 +8°C° 0 mm 2 m/s 754 mmHg 92%
03:00 +9°C° 0 mm 2 m/s 754 mmHg 92%
04:00 +9°C° 0 mm 2 m/s 753 mmHg 93%
05:00 +9°C° 0 mm 2 m/s 753 mmHg 93%
06:00 +11°C° 0 mm 3 m/s 753 mmHg 86%
07:00 +13°C° 0 mm 3 m/s 753 mmHg 78%
08:00 +15°C° 0 mm 4 m/s 752 mmHg 71%
09:00 +16°C° 0 mm 5 m/s 752 mmHg 67%
10:00 +19°C° 0 mm 5 m/s 752 mmHg 64%
11:00 +20°C° 0 mm 6 m/s 751 mmHg 60%
12:00 +17°C° 0.3 mm 5 m/s 751 mmHg 70%
13:00 +16°C° 0.3 mm 5 m/s 751 mmHg 79%
14:00 +14°C° 0.3 mm 4 m/s 751 mmHg 88%
15:00 +14°C° 0 mm 4 m/s 751 mmHg 84%
16:00 +14°C° 0 mm 4 m/s 751 mmHg 79%
17:00 +15°C° 0 mm 4 m/s 751 mmHg 74%
18:00 +13°C° 0 mm 4 m/s 751 mmHg 79%
19:00 +12°C° 0 mm 3 m/s 751 mmHg 84%
20:00 +10°C° 0 mm 3 m/s 751 mmHg 89%
21:00 +10°C° 0 mm 2 m/s 751 mmHg 91%
22:00 +9°C° 0 mm 2 m/s 750 mmHg 93%
23:00 +9°C° 0 mm 2 m/s 750 mmHg 94%

13 Mai, Joi

Timp Temperatura Precipitaţii Vânt Presiune Umiditate
00:00 +9°C° 0 mm 2 m/s 750 mmHg 95%
01:00 +9°C° 0 mm 2 m/s 749 mmHg 96%
02:00 +9°C° 0 mm 2 m/s 749 mmHg 97%
03:00 +10°C° 0.1 mm 2 m/s 748 mmHg 97%
04:00 +10°C° 0.1 mm 2 m/s 748 mmHg 98%
05:00 +12°C° 0.1 mm 2 m/s 747 mmHg 98%
06:00 +12°C° 0.1 mm 3 m/s 747 mmHg 97%
07:00 +12°C° 0.1 mm 3 m/s 746 mmHg 95%
08:00 +13°C° 0.1 mm 3 m/s 746 mmHg 94%
09:00 +13°C° 0.6 mm 4 m/s 746 mmHg 91%
10:00 +13°C° 0.6 mm 5 m/s 746 mmHg 88%
11:00 +11°C° 0.6 mm 6 m/s 746 mmHg 85%
12:00 +13°C° 0.4 mm 6 m/s 746 mmHg 82%
13:00 +13°C° 0.4 mm 6 m/s 746 mmHg 78%
14:00 +14°C° 0.4 mm 6 m/s 745 mmHg 75%
15:00 +14°C° 0.1 mm 6 m/s 745 mmHg 71%
16:00 +15°C° 0.1 mm 5 m/s 745 mmHg 67%
17:00 +15°C° 0.1 mm 5 m/s 745 mmHg 62%
18:00 +14°C° 0 mm 4 m/s 746 mmHg 67%
19:00 +13°C° 0 mm 3 m/s 746 mmHg 72%
20:00 +12°C° 0 mm 2 m/s 746 mmHg 77%
21:00 +12°C° 0 mm 2 m/s 746 mmHg 81%
22:00 +10°C° 0 mm 2 m/s 746 mmHg 84%
23:00 +10°C° 0 mm 2 m/s 745 mmHg 88%
Arată mai mult

Formular de consimțământ

Meteoprog și furnizorii noștri de servicii pot stoca și accesa date personale, precum cookies, identificatori de dispozitiv sau alte tehnologii similare pe dispozitivul dumneavoastră și procesa astfel de date pentru a personaliza conținutul și reclamele, dar și pentru a oferi caracteristici de social media și pentru a analiza traficul.

  • Stocarea și/sau accesarea informațiilor pe dispozitivul dumneavoastră

    Cookies, identificatori de dispozitiv sau alte informații pot fi stocate sau accesate pe dispozitiv în scopurile indicate mai sus.

  • Reclame și conținut personalizat, evaluarea reclamelor și a conținutului, informații despre audiențe și dezvoltarea produselor

    Reclamele și conținutul pot fi personalizate pe baza unui profil. Pot fi adăugate date suplimentare pentru a personaliza mai bine reclamele și conținutul. Performanța reclamelor și conținutului poate fi măsurată. Pot fi obținute informații despre utilizatorii care au văzut reclamele și conținutul. Aceste date pot fi utilizate pentru a dezvolta sau îmbunătăți experiența utilizatorilor, sistemele și software-ul.

Dând clic pe ‘Sunt de acord’, permiteți utilizarea cookie-urilor menționate, a identificatorilor de dispozitiv, balizelor web sau altor tehnologii similare. Setările pot fi modificate din browser-ul dispozitivului dumneavoastră.

În anumite scopuri, interesele legitime pot prima asupra consimțământului. Puteți citi mai multe informații în acest sens în Politica privind Confidențialitatea Datelor și Cookie.